This is the latest recevied weather packets stored in our database for station/object N6GPM. If no packets are shown the sender has not sent any weather packets the latest 10 day(s).
| Time | Temp. | Humidity | Pressure | Rain* | Wind** | Luminosity | Snow |
|---|---|---|---|---|---|---|---|
| 1788120277 | 33.89° C | 31% | 1016.4 hPa | 0 mm | - | 989 W/m² | - |
| 1788119972 | 33.89° C | 33% | 1016.5 hPa | 0 mm | - | 989 W/m² | - |
| 1788119667 | 33.89° C | 33% | 1016.5 hPa | 0 mm | - | 993 W/m² | - |
| 1788119365 | 34.44° C | 32% | 1016.7 hPa | 0 mm | - | 992 W/m² | - |
| 1788119065 | 33.89° C | 32% | 1016.7 hPa | 0 mm | - | 991 W/m² | - |
| 1788118764 | 33.89° C | 33% | 1016.6 hPa | 0 mm | - | 992 W/m² | - |
| 1788118463 | 32.78° C | 34% | 1016.7 hPa | 0 mm | - | 990 W/m² | - |
| 1788118159 | 33.33° C | 34% | 1016.6 hPa | 0 mm | - | 993 W/m² | - |
| 1788117854 | 32.78° C | 34% | 1016.6 hPa | 0 mm | - | 990 W/m² | - |
| 1788117549 | 32.78° C | 34% | 1016.5 hPa | 0 mm | - | 982 W/m² | - |
| 1788117249 | 33.33° C | 34% | 1016.7 hPa | 0 mm | - | 980 W/m² | - |
| 1788116945 | 33.33° C | 32% | 1016.8 hPa | 0 mm | - | 978 W/m² | - |
| 1788116640 | 32.78° C | 32% | 1017 hPa | 0 mm | - | 974 W/m² | - |
| 1788116339 | 32.78° C | 33% | 1016.9 hPa | 0 mm | - | 969 W/m² | - |
| 1788116034 | 32.22° C | 34% | 1016.7 hPa | 0 mm | - | 964 W/m² | - |
| 1788115729 | 32.78° C | 34% | 1016.8 hPa | 0 mm | - | 957 W/m² | - |
| 1788115428 | 33.89° C | 32% | 1016.7 hPa | 0 mm | - | 952 W/m² | - |
| 1788115122 | 33.33° C | 31% | 1017 hPa | 0 mm | - | 950 W/m² | - |
| 1788114817 | 32.78° C | 32% | 1017.2 hPa | 0 mm | - | 941 W/m² | - |
| 1788114512 | 33.33° C | 31% | 1016.8 hPa | 0 mm | - | 932 W/m² | - |
| 1788114209 | 32.78° C | 31% | 1017.2 hPa | 0 mm | - | 923 W/m² | - |
| 1788113904 | 32.78° C | 31% | 1017.3 hPa | 0 mm | - | 913 W/m² | - |
| 1788113600 | 31.67° C | 33% | 1017.3 hPa | 0 mm | - | 901 W/m² | - |
| 1788113299 | 31.67° C | 34% | 1017.3 hPa | 0 mm | - | 892 W/m² | - |
| 1788112994 | 32.22° C | 33% | 1017.2 hPa | 0 mm | - | 879 W/m² | - |
* Rain latest hour (hover to see other rain measurements)
** Current wind speed in m/s (hover to see current wind gust speed)